Regional Weather Roundup
Issued by NWS Kansas City/Pleasant Hill, MO

Home | Current Version | Previous Version | Text Only | Print | Product List | Glossary On
Versions: 1 2 3 4 5 6 7 8 9 10 11 12 13 14 15 16 17 18 19 20 21 22 23 24 25 26 27
000
ASUS43 KEAX 091210
RWREAX

WEATHER ROUNDUP FOR EASTERN KANSAS AND NORTHWEST MISSOURI
NATIONAL WEATHER SERVICE KANSAS CITY/PLEASANT HILL MO
600 AM CST FRI DEC 09 2016

KSZ040-057-103>105-MOZ028-029-037-043-091300-
...KANSAS CITY METROPOLITAN AREA...

CITY           SKY/WX    TMP DP  RH WIND       PRES   REMARKS
K.C. INTL      CLEAR     12   6  77 N5        30.63F WCI   4
6HR MIN TEMP:  11; 6HR MAX TEMP:  15;

K.C. DOWNTOWN  CLEAR     16   9  74 CALM      30.66F
6HR MIN TEMP:  15; 6HR MAX TEMP:  20;

LEES SUMMIT    CLEAR     14   8  77 N5        30.64F WCI   6
6HR MIN TEMP:  13; 6HR MAX TEMP:  18;

OLATHE - IXD   CLEAR     13   7  77 CALM      30.64F
6HR MIN TEMP:  11; 6HR MAX TEMP:  16;

OLATHE - OJC   CLEAR     12   7  80 CALM      30.63F
6HR MIN TEMP:  11; 6HR MAX TEMP:  16;

LAWRENCE       CLOUDY     7   5  91 CALM      30.66S

$$

MOZ001>008-011>017-020>025-030>033-038>040-044>046-053-054-091300-
...NORTHERN AND CENTRAL MISSOURI...

CITY           SKY/WX    TMP DP  RH WIND       PRES   REMARKS
ST. JOSEPH     CLEAR     11   8  88 S5        30.66F WCI   3
6HR MIN TEMP:   9; 6HR MAX TEMP:  16;

MOSBY            N/A     12   9  85 CALM      30.66F
WARRENSBURG    CLOUDY    14  10  85 NW3       30.66S
WHITEMAN AFB   CLEAR     16  11  80 NW6       30.65S WCI   7
6HR MIN TEMP:  16; 6HR MAX TEMP:  22;

CLINTON        CLEAR     14  10  85 CALM      30.67S
SEDALIA        CLEAR     15   8  73 NW5       30.66S WCI   8
6HR MIN TEMP:  14; 6HR MAX TEMP:  18;

WARSAW         NOT AVBL
CHILLICOTHE      N/A     12   7  80 CALM      30.67R
6HR MIN TEMP:  11; 6HR MAX TEMP:  18; 6HR PCP:  0.01;

KIRKSVILLE     CLEAR      9   6  88 W3        30.62R
6HR MIN TEMP:   9; 6HR MAX TEMP:  15;


$$

MOZ041-047>049-056>058-063>065-088>090-097-091300-
...EASTERN AND SOUTHERN MISSOURI...

CITY           SKY/WX    TMP DP  RH WIND       PRES   REMARKS
ST. LOUIS INTL CLEAR     18  10  71 NW5       30.62R WCI  11
6HR MIN TEMP:  18; 6HR MAX TEMP:  21;

SPIRIT OF STL  CLEAR     15  11  83 W5        30.63S WCI   8
COLUMBIA       CLEAR     14   9  80 NW6       30.63S WCI   5
JEFFERSON CITY CLEAR     13   9  84 NW3       30.67R
ROLLA          CLEAR     13   9  84 W7        30.60S WCI   3
OSAGE BEACH    CLEAR     14   8  77 NW3       30.66S
SPRINGFIELD    CLEAR     13   9  84 NW3       30.61S
BRANSON        CLEAR     14  10  85 CALM      30.62S
JOPLIN         CLOUDY    12   9  87 CALM      30.66S
WEST PLAINS    CLEAR     13   9  84 CALM      30.61R

$$

IAZ060-094-KSZ022-034>040-054-083-096-NEZ052-066-093-091300-
...KANSAS...SOUTHEAST NEBRASKA AND IOWA...

CITY           SKY/WX    TMP DP  RH WIND       PRES   REMARKS
TOPEKA         CLOUDY    12   7  80 CALM      30.65F
6HR MIN TEMP:  10; 6HR MAX TEMP:  15;

MANHATTAN      PTCLDY    13   9  84 CALM      30.62F
EMPORIA        CLOUDY    12   9  87 CALM      30.62F
CHANUTE        CLOUDY    14  10  84 CALM      30.65F
WICHITA        CLOUDY    17  10  74 E6        30.60F WCI   9
OMAHA          CLEAR      7   1  76 N3        30.63S
LINCOLN        CLOUDY     4   0  83 CALM      30.63S
FALLS CITY     CLEAR      7   4  87 CALM      30.63F
LAMONI         CLEAR      7   3  84 W7        30.60S WCI  -5
DES MOINES     CLEAR     11   5  77 NW7       30.60F WCI   0

$$





USA.gov is the U.S. government's official web portal to all federal, state and local government web resources and services.